Home   Weather   Sundsvall   Past weeks
Flag for Sweden

Past Weather in Sundsvall, Sweden — Yesterday and Last 2 Weeks

Now
52 °F

Sunny.


Feels Like: 52 °F
Forecast: 58 / 36 °F
Wind: 2 mph from North

Location: Sundsvall-Harnosand Flygplats

Current Time: Apr 25, 2019 at 10:41:30 am

Latest Report: Apr 25, 2019 at 9:50 am


Visibility: 10 mi

Pressure: 30.21 "Hg

Humidity: 50%

Dew Point: 34 °F

Location of SundsvallLocation

Past Weather in Sundsvall — Graph

°F

Sundsvall Temperature Yesterday

Maximum temperature yesterday: 63 °F (at 12:50 pm)
Minimum temperature yesterday: 30 °F (at 5:20 am)
Average temperature yesterday: 45 °F

High & Low Weather Summary for the Past Weeks

 TemperatureHumidityPressure
High68 °F (Apr 23, 12:20 pm)100% (Apr 21, 11:50 pm)30.66 "Hg (Apr 21, 11:50 pm)
Low19 °F (Apr 11, 5:20 am)17% (Apr 18, 5:50 pm)30.07 "Hg (Apr 21, 5:50 pm)
Average39 °F63%30.44 "Hg
* Reported Apr 10 9:20 am — Apr 25 9:20 am, Sundsvall. Weather by CustomWeather, © 2019

Note: Actual official high and low records may vary slightly from our data, if they occured in-between our weather recording intervals... More about our weather records

Advertising

Sundsvall Weather History for the Previous 24 Hours

Scroll right to see more
 ConditionsComfort  
Time TempWeatherWind HumidityBarometerVisibility
9:20 am
Thu, Apr 25
50 °FSunny.1 mph54%30.21 "Hg10 mi
8:50 am46 °FSunny.1 mph57%30.21 "Hg10 mi
7:50 am39 °FPassing clouds.7 mph70%30.24 "HgN/A
7:20 am37 °FSunny.7 mph75%30.24 "Hg10 mi
6:50 am36 °FSunny.9 mph81%30.24 "Hg10 mi
6:20 am34 °FSunny.6 mph81%30.24 "Hg10 mi
5:50 am34 °FChilly.9 mph81%30.24 "HgN/A
5:20 am32 °FChilly.7 mph87%30.24 "Hg4 mi
4:50 am30 °FChilly.1 mph93%30.24 "Hg2 mi
4:20 am28 °FChilly.No wind93%30.24 "Hg1 mi
3:50 am30 °FChilly.1 mph93%30.24 "Hg1 mi
3:20 am32 °FChilly.3 mph93%30.27 "HgN/A
2:50 am30 °FChilly.3 mph100%30.24 "Hg3 mi
2:20 am30 °FChilly.1 mph100%30.24 "Hg0 mi
1:50 am30 °FChilly.No wind100%30.24 "Hg0 mi
1:20 am30 °FChilly.No wind100%30.24 "Hg1 mi
12:50 am32 °FChilly.2 mph93%30.24 "Hg4 mi
12:20 am32 °FChilly.2 mph100%30.24 "Hg3 mi
11:50 pm
Wed, Apr 24
32 °FChilly.No wind100%30.24 "Hg4 mi
11:20 pm32 °FChilly.3 mph100%30.24 "Hg4 mi
10:50 pm34 °FClear.3 mph100%30.24 "Hg4 mi
10:20 pm36 °FFog.2 mph93%30.24 "Hg5 mi
9:50 pm36 °FClear.No wind93%30.24 "Hg10 mi
9:20 pm39 °FClear.No wind87%30.24 "Hg10 mi
8:50 pm39 °FClear.1 mph81%30.24 "Hg10 mi
8:20 pm43 °FSunny.1 mph76%30.24 "Hg10 mi
7:50 pm45 °FSunny.2 mph71%30.21 "Hg10 mi
7:20 pm46 °FSunny.5 mph66%30.21 "Hg10 mi
6:50 pm48 °FSunny.5 mph62%30.24 "Hg10 mi
6:20 pm54 °FSunny.5 mph51%30.24 "Hg10 mi
5:50 pm52 °FSunny.7 mph54%30.24 "Hg10 mi
5:20 pm52 °FSunny.8 mph54%30.24 "Hg10 mi
4:50 pm54 °FSunny.8 mph51%30.24 "Hg10 mi
4:20 pm55 °FSunny.6 mph44%30.24 "Hg10 mi
3:50 pm55 °FSunny.10 mph41%30.24 "Hg10 mi
3:20 pm57 °FSunny.10 mph33%30.24 "Hg10 mi
2:50 pm59 °FSunny.10 mph29%30.27 "Hg10 mi
2:20 pm59 °FSunny.12 mph29%30.27 "Hg10 mi
1:50 pm61 °FSunny.12 mph27%30.27 "Hg10 mi
1:20 pm63 °FSunny.14 mph25%30.27 "Hg10 mi
12:50 pm63 °FSunny.14 mph24%30.27 "Hg10 mi
12:20 pm61 °FSunny.14 mph27%30.27 "Hg10 mi
11:50 am61 °FSunny.13 mph29%30.27 "Hg10 mi
11:20 am59 °FSunny.9 mph36%30.27 "Hg10 mi
10:50 am61 °FSunny.6 mph31%30.27 "Hg10 mi
10:20 am59 °FSunny.5 mph34%30.27 "Hg10 mi
Weather by CustomWeather, © 2019

See weather overview